Misión y Visión

La misión es proporcionar información fiable a la navegación aérea, contribuyendo a la seguridad, regularidad y eficiencia de la Navegación Aérea Internacional

La visión es contribuir sustancialmente al desarrollo de conocimientos y a la utilización de la meteorología aeronáutica a nivel nacional e internacional, mediante la innovación y la coparticipación con sectores sociales y productivos de la sociedad.

 
  Inicio
  Metar
  Taf
  Wintemp
  SIGMET
  Avisos
  Pronósticos
  Carpeta Meteorologica
  Imágenes Satelitales
  Climatología Aeronáutica
   
  ¿Quienes Somos?
  Contacto
  Eventos
  Publicaciones
  Politica de la Calidad
Taf

DIRECCIONES PARA INFORMES NACIONALES E INTERNACIONALES
(Metar /Speci - TAF)

http://adds.aviationweather.gov/tafs/index.php

http://www.ogimet.com/metars.phtml

PRONÓSTICOS DE AERÓDROMO

Cuando sea necesario, el encabezamiento abreviado puede incluir un cuarto grupo consistente en tres letras para identificar los boletines demorados (RRA), corregidos (CCA) o enmendados (AAA). Los boletines adicionales demorados, corregidos o enmendados deben identificarse con las letras RRB, RRC, etc.; CCB, CCC,etc.;AAB, AAC,etc.

 

DÍA 30/10/2014

 

TAF 

MPTO

TAF MPTO 301000Z 3012/3112 00000KT 9000 SCT018 SCT090 PROB30 TEMPO 3119/3122 15007KT 6000 TSRA SCT015CB BKN090

     TAF MPPA

TAF MPPA 301000Z 3012/3112 00000KT 9999 SCT018 SCT090 PROB30 TEMPO 3119/3123 18006KT 6000 TSRA SCT015CB BKN090
TAF MPMG

TAF MPMG 300400Z 3006/3018 32006KT 9999 SCT020 SCT090 PROB30 TEMPO 3014/3018 17006KT 9000 SCT016CB BKN090

TAF MPDA 

 

TAF MPDA 300400Z 3006/3018 22006KT 9999 SCT018 SCT100 BECMG 3014/3018 18006KT 9999 FEW018CB SCT100

 

 
 















  Noticias AAC
  Directorio
  Contáctenos
  Historia
  Quejas y Sugerencias
  Etica y Transparencia

  Gestión SSP/SMS
  Seguridad Aérea
  Navegación Aérea
  Transporte Aéreo

  Tramites
  Áeronaves de Alquiler

  Meteorología
  I.S.F.P.A
  Notam
  Peligro Aviario
  AVSEC
  UPIA
  Permisos
 




DECLARACIÓN DE PRIVACIDAD